User: anonymous   Login
Location: Bismarck
(46.7731°N, 100.8200°W)
Time: 00:00:22
(UTC-05:00)
Language:

Landsat 7 - Orbit

View from above orbital plane
View from above orbital plane
View from above satellite
View from above satellite

Ground track
Ground track

The orbit data is extracted from the following two-line orbital elements,

1 25682U 99020A   15184.75467521  .00000080  00000-0  27777-4 0  9991
2 25682 098.2170 254.4582 0001261 095.2871 264.8457 14.57101894862556
Epoch (UTC): 03 July 2015 18:06:43
Eccentricity: 0.0001261
inclination: 98.2170°
perigee height: 701 km
apogee height: 703 km
right ascension of ascending node: 254.4582°
argument of perigee: 95.2871°
revolutions per day: 14.57101894
mean anomaly at epoch: 264.8457°
orbit number at epoch: 86255

The dashed part of the orbit path shows where the satellite is in the earth's shadow,  

DLR